Powrót do katalogu

COSMOS 839 DEB

AktywnyUNKNOWN
NORAD 18272·DEBRIS·🇷🇺 Russia

Wystrzelony Jul 8, 1976 z Plesetsk Cosmodrome

Loading…

Następne Przeloty (najbliższe 24 godziny)

TLE

ŚwieżeSource: Space-Track

Epoka: Sep 13, 2026, 08:54 UTC

1 18272U 76067BL  26256.37090574  .00000011  00000-0  21715-3 0  9993
2 18272  65.8538 156.4196 0690180 202.0360 278.9728 12.40673059775319

Śledź COSMOS 839 DEB w czasie rzeczywistym z AllMySat

Download on the App Store